Date,TemperatureHighF,TemperatureAvgF,TemperatureLowF,DewpointHighF,DewpointAvgF,DewpointLowF,HumidityHigh,HumidityAvg,HumidityLow,PressureMaxIn,PressureMinIn,WindSpeedMaxMPH,WindSpeedAvgMPH,GustSpeedMaxMPH,PrecipitationSumIn
2013-1-1,41,27,17,15,9,5,84,49,24,0.00,40.00,4,2,12,0.01
2013-1-2,45,32,15,23,1,-100,90,47,29,0.00,40.00,2,-138,7,0.02
2013-1-3,47,33,15,26,20,12,92,65,31,0.00,40.00,2,1,5,0.16
2013-1-4,52,33,9,31,19,-100,96,70,33,0.00,40.00,2,-46,7,0.32
2013-1-5,50,37,17,30,19,-100,90,57,40,0.00,40.00,3,-42,16,0.31
2013-1-6,35,30,26,25,21,17,83,69,59,0.00,40.00,4,2,10,0.01
2013-1-7,45,34,24,31,24,-100,98,74,47,0.00,40.00,4,-16,10,0.11
2013-1-8,52,37,22,34,28,20,97,75,43,0.00,40.00,2,1,7,0.25
2013-1-9,52,41,23,30,25,19,94,57,33,0.00,40.00,7,4,26,0.05
2013-1-10,28,23,20,20,-3,-100,90,57,40,0.00,40.00,5,-135,16,0.00
2013-1-11,27,25,24,5,5,3,43,41,38,0.00,40.00,4,3,12,0.00
2013-1-12,33,25,17,6,1,-8,52,36,21,0.00,40.00,3,2,9,0.00
2013-1-13,32,17,-10,7,-6,-100,78,41,20,0.00,40.00,6,-18,17,0.00
2013-1-14,38,27,-5,7,5,-12,78,42,22,0.00,40.00,5,3,17,0.00
2013-1-15,54,34,13,26,14,-100,84,53,26,0.00,40.00,4,-39,13,0.15
2013-1-16,51,40,20,19,12,7,84,36,18,0.00,40.00,3,2,8,0.09
2013-1-17,50,39,4,16,10,-2,82,36,19,0.00,40.00,3,2,7,0.01
2013-1-18,50,41,3,17,7,-100,81,30,17,0.00,40.00,3,-30,7,0.01
2013-1-19,49,41,18,16,-4,-100,65,24,16,0.00,40.00,2,-114,6,0.00
2013-1-20,49,40,17,16,-1,-100,58,25,19,0.00,40.00,3,-95,8,0.00
2013-1-21,55,38,9,22,2,-100,77,34,14,0.00,40.00,3,-104,7,0.00
2013-1-22,52,39,12,25,21,8,85,52,29,0.00,40.00,3,1,8,0.00
2013-1-23,54,43,29,26,10,-100,70,35,17,0.00,40.00,6,-49,24,0.00
2013-1-24,42,36,32,39,25,-100,99,85,80,0.00,40.00,1,-64,4,0.14
2013-1-25,46,40,35,40,37,35,100,88,76,0.00,40.00,4,2,14,0.06
2013-1-26,47,39,33,33,20,-100,83,61,54,0.00,40.00,6,-64,23,0.01
2013-1-27,35,27,19,20,4,-100,88,63,48,0.00,40.00,4,-117,19,0.00
2013-1-28,33,29,13,24,10,-100,87,56,45,0.00,40.00,4,-61,14,0.00
2013-1-29,47,37,28,28,24,20,87,61,46,0.00,40.00,6,3,25,0.09
2013-1-30,54,38,21,29,14,-100,93,54,26,0.00,40.00,3,-65,8,0.08
2013-1-31,56,48,29,23,20,16,78,35,24,0.00,40.00,4,3,12,0.00